Regional Weather Roundup
Issued by NWS

Home | Current Version | Previous Version | Text Only | Print | Product List | Glossary Off
Versions: 1 2 3 4 5 6 7 8 9 10 11 12 13 14 15 16 17 18 19 20 21 22 23 24 25 26 27 28 29 30 31 32 33 34 35 36 37 38 39 40 41 42 43 44 45 46 47 48 49 50

000
ASUS43 KDMX 250808
RWRIA

WEATHER ROUNDUP FOR IOWA
NATIONAL WEATHER SERVICE DES MOINES IA
300 AM CDT WED MAY 25 2016

NOTE: "FAIR" INDICATES FEW OR NO CLOUDS BELOW 12,000 FEET WITH NO
SIGNIFICANT WEATHER AND/OR OBSTRUCTIONS TO VISIBILITY.

* - THESE STATIONS ARE NOT NWS STATIONS...THUS NOT UNDER NWS
QUALITY CONTROL.  THEY ALSO DO NOT REPORT WEATHER SUCH
AS PRECIPITATION OR FOG.

IAZ001>003-012>014-020>022-031>034-043>046-250900-
   NORTHWEST IOWA

CITY           SKY/WX    TMP DP  RH WIND       PRES   REMARKS
CARROLL *      CLOUDY    64  63  94 E6        29.82F
CHEROKEE *     CLOUDY    66  63  88 SE5       29.83F
DENISON *      CLOUDY    68  64  88 S21G35    29.83R
LE MARS *      CLOUDY    68  63  83 SE9       29.80F
ORANGE CITY *  CLOUDY    66  64  94 SE5       29.82F
SHELDON *      MOCLDY    66  63  88 SE10      29.81F
SIOUX CITY     CLOUDY    70  63  78 S9        29.80F
SPENCER        CLOUDY    66  61  84 SE9       29.85F
STORM LAKE *   MOCLDY    66  63  88 SE9       29.83F
$$

IAZ055>058-069>071-079>083-090>094-250900-
   SOUTHWEST IOWA

CITY           SKY/WX    TMP DP  RH WIND       PRES   REMARKS
ATLANTIC *     CLOUDY    68  64  88 S8G14     29.85R
AUDUBON *      PTCLDY    64  61  88 CALM      29.84F
CLARINDA *       N/A     70  64  83 MISG      29.85S
COUNCIL BLFS * LGT RAIN  64  61  88 W10       29.81F
CRESTON *      MOCLDY    66  64  94 SE9       29.84F
HARLAN  *        N/A    N/A N/A N/A MISG        N/A
LAMONI         CLOUDY    65  64  97 S8        29.85F
RED OAK *      LGT RAIN  68  63  83 SW6       29.82F
SHENANDOAH *   CLOUDY    68  64  88 CALM      29.83F
$$

IAZ047>049-059>061-072>074-084-250900-
   CENTRAL IOWA

CITY           SKY/WX    TMP DP  RH WIND       PRES   REMARKS
AMES           CLOUDY    63  62  97 E3        29.87F
ANKENY *       PTCLDY    66  66 100 E3        29.85F
BOONE *        MOCLDY    64  63  94 E6        29.86F
CHARITON *     CLEAR     64  64 100 SE10      29.85F
DES MOINES     CLOUDY    68  63  84 E7        29.84F
GRINNELL*      CLOUDY    64  63  94 SE6       29.90F
KNOXVILLE *    CLEAR     64  63  94 E7        29.85F
MARSHALLTOWN   CLOUDY    64  62  93 SE7       29.90F
NEWTON *       CLOUDY    64  64 100 SE8       29.89F
PELLA *        MOCLDY    64  63  94 E5        29.89F
PERRY *        CLOUDY    66  64  94 E8        29.84F
$$

IAZ004>006-015-016-023>025-035-036-250900-
   NORTH CENTRAL IOWA

CITY           SKY/WX    TMP DP  RH WIND       PRES   REMARKS
ALGONA *       CLEAR     66  63  88 SE10      29.88F
CLARION *      CLEAR     66  63  88 SE8       29.89F
ESTHERVILLE    CLOUDY    63  60  90 SE8       29.86F
FORT DODGE *   CLOUDY    66  59  77 SE5       29.88F
MASON CITY     PTCLDY    62  60  93 CALM      29.91F
FOREST CITY *  CLEAR     59  59 100 E5        29.89F
WEBSTER CITY * CLEAR     63  63 100 SE7       29.87F
IOWA FALLS *     N/A     63  59  88 SE5       29.91F
$$

IAZ007>011-017>019-026>030-037>042-050>054-066-250900-
   NORTHEAST IOWA

CITY           SKY/WX    TMP DP  RH WIND       PRES   REMARKS
CEDAR RAPIDS   CLOUDY    65  64  97 S3        29.92F
CHARLES CITY * CLEAR     64  61  88 E6        29.92F
CLINTON *      CLOUDY    66  62  87 S5        29.96F
DECORAH *      PTCLDY    66  61  82 E6        29.94F
DUBUQUE        CLEAR     64  60  87 S3        29.96F
MONTICELLO *   CLEAR     66  63  88 E3        29.94F
OELWEIN *      CLEAR     64  63  94 S8        29.93F
WATERLOO       CLOUDY    66  62  87 SE6       29.90F
$$

IAZ064-065-067-068-078-250900-
   EAST CENTRAL IOWA

CITY           SKY/WX    TMP DP  RH WIND       PRES   REMARKS
DAVENPORT      CLOUDY    64  60  87 S7        29.96F
IOWA CITY      CLOUDY    65  62  90 CALM      29.95F
MT. PLEASANT * CLOUDY    66  64  94 SE6       29.93F
MUSCATINE *    CLEAR     66  63  88 CALM      29.95F
QUAD CITIES    CLOUDY    67  60  78 CALM      29.95F
$$

IAZ062-063-075>077-085>089-095>099-250900-
   SOUTHEAST IOWA

CITY           SKY/WX    TMP DP  RH WIND       PRES   REMARKS
BURLINGTON     CLOUDY    62  62 100 S5        29.94F
FAIRFIELD *      N/A    N/A N/A N/A MISG        N/A
FORT MADISON * CLEAR     64  63  94 SE5       29.94F
KEOKUK *       CLEAR     66  63  88 S5        29.93F
OSKALOOSA *      N/A     64  63  94 SE8       29.91F
OTTUMWA        CLOUDY    64  63  96 SE8       29.90F
WASHINGTON *   CLEAR     63  63 100 SE7       29.93F
$$

ABBREVIATIONS USED IN REMARKS
   TC - TEMPERATURES IN CELSIUS
  WCI - WIND CHILL INDEX
   HX - HEAT INDEX
  VSB - VISIBILITY
$$





USA.gov is the U.S. government's official web portal to all federal, state and local government web resources and services.